Wind_Speed
43 43 43 43 43 43 42 42 41 41 40 41 41 42 42 41 41 41 41 42 42 41 41 41 41 41 41 41 41 42 42 42 43 44 44 44 44 44
44 44 44 44 44 44 44 43 43 43 43 43 43 43 42 42 42 43 42 42 43 43 43 43 42 43 44 43 43 43 44 44 44 44 45 45 46 46
44 44 45 45 45 45 45 44 44 44 44 43 44 43 43 43 43 43 43 43 43 44 45 45 44 44 45 45 44 45 46 46 47 47 47 47 47 47
45 45 45 46 46 45 45 44 44 44 44 44 43 43 44 44 44 44 43 44 44 45 45 46 46 46 46 45 46 47 47 48 49 49 49 49 49 50
45 45 46 47 46 46 46 45 45 45 45 46 45 45 45 45 45 45 45 44 44 45 45 46 46 46 46 47 47 48 49 49 50 50 51 51 52 52
45 45 46 47 47 47 47 47 47 46 46 46 45 46 47 47 47 46 46 45 45 45 46 46 46 47 48 49 50 51 52 52 52 53 53 54 54 54
45 45 45 46 46 46 47 47 47 47 47 48 47 48 47 47 47 48 48 46 46 46 46 47 48 49 51 52 53 54 54 54 55 55 55 56 56 56
46 46 46 46 46 46 46 47 48 49 49 49 48 49 48 48 48 49 50 49 48 48 48 49 51 52 53 54 54 53 54 54 55 56 57 57 57 57
47 47 47 47 47 47 47 47 48 48 49 50 50 50 50 50 50 50 50 49 49 50 50 51 52 52 53 53 53 53 54 54 55 56 57 57 58 58
47 47 47 47 47 47 47 48 48 48 48 50 51 51 51 50 50 51 51 51 52 52 52 52 52 52 52 52 53 53 54 55 56 56 56 57 57 57
48 48 47 47 47 47 47 47 47 48 48 49 49 50 50 50 50 51 51 52 52 52 52 52 52 52 51 52 53 54 55 56 56 56 56 56 56 56
48 48 49 49 48 48 48 47 47 48 48 49 49 49 48 48 49 50 50 51 51 52 51 52 52 53 52 52 53 54 55 55 55 55 55 55 56 55
47 48 48 48 49 48 48 47 47 47 48 48 48 48 49 49 49 49 49 50 51 51 52 52 52 53 53 53 52 52 53 54 54 54 54 54 54 54
45 45 47 47 48 48 47 47 47 47 47 48 49 49 50 49 49 49 49 50 51 52 52 53 53 53 53 53 52 52 52 53 54 54 54 54 53 53
44 44 45 45 45 46 47 47 48 48 49 49 49 49 49 49 49 50 50 50 51 52 52 52 52 52 53 53 53 52 52 52 53 53 52 52 51 51
44 44 44 44 44 45 46 47 48 49 49 50 49 49 49 50 50 51 51 51 51 51 51 51 52 52 53 53 53 53 52 52 51 51 50 49 49 49
44 44 44 45 45 46 46 47 47 48 49 49 49 49 49 49 50 50 51 50 50 49 49 50 51 51 51 51 52 51 50 49 49 48 47 47 47 47
43 43 43 44 44 45 46 46 47 47 47 48 49 49 49 50 49 49 49 48 48 48 49 49 50 50 50 50 50 50 49 48 47 47 46 47 46 47
42 42 42 43 43 44 45 45 46 46 46 47 48 48 49 49 48 48 47 47 48 48 48 48 49 49 49 48 48 49 48 47 46 46 47 47 46 45
42 42 43 43 43 43 44 44 45 45 46 47 48 48 48 48 47 47 47 47 47 47 47 47 47 48 47 47 46 46 46 46 46 45 45 45 44 44
41 42 43 43 43 43 43 44 44 45 45 46 47 47 46 46 46 46 46 46 46 46 46 46 45 46 45 45 44 43 44 44 44 43 43 42 41 42
41 41 42 42 42 42 43 43 43 44 44 45 45 45 45 45 46 46 46 46 46 46 46 45 45 45 44 43 42 41 41 41 42 42 41 41 40 40
40 40 41 41 40 40 41 41 42 42 43 43 43 43 44 44 45 46 46 46 46 46 46 45 44 43 43 42 41 41 40 40 40 40 40 40 40 39
Wind_Direction
258 257 257 257 258 260 262 265 267 268 267 265 265 267 268 270 273 275 274 274 274 275 275 276 277 278 279 280 280 282 284 284 284 285 286 287 287 288
259 258 258 258 258 259 262 265 267 268 268 266 266 268 269 271 273 273 274 274 273 274 275 276 276 278 279 279 280 282 283 284 285 286 287 287 287 288
258 258 258 259 259 259 261 265 266 267 267 267 267 268 270 271 273 274 274 274 275 275 276 276 276 277 280 280 280 282 283 284 284 285 286 287 288 288
258 258 259 259 261 262 262 265 266 266 266 267 268 269 270 271 274 275 276 275 275 275 276 277 279 278 280 281 281 281 283 284 285 285 286 287 287 288
258 258 259 259 260 262 263 265 265 266 267 267 269 269 270 271 274 275 276 276 275 276 276 278 278 278 280 281 281 282 283 283 285 286 287 287 287 287
258 259 259 260 261 262 263 264 265 266 266 268 268 269 270 272 274 274 275 275 276 276 277 278 279 280 281 281 282 282 283 284 285 286 287 287 288 288
259 260 261 261 261 262 264 264 265 266 266 267 268 269 270 272 274 274 274 274 275 276 276 277 279 280 281 282 282 283 283 284 285 286 287 288 288 289
260 261 261 261 263 264 265 265 266 266 266 267 268 270 271 273 274 275 273 273 275 275 276 277 279 280 282 282 282 283 283 284 285 286 287 288 289 289
260 261 261 262 264 265 266 266 267 267 268 268 269 270 272 273 274 273 273 274 275 276 277 278 279 281 282 282 283 283 284 285 286 287 288 289 289 290
260 260 261 262 263 264 266 267 267 268 268 269 270 272 272 274 274 275 275 275 276 277 278 279 280 281 283 283 284 284 285 286 287 288 289 289 290 291
259 260 261 262 263 264 266 266 266 267 268 269 270 272 273 273 275 276 277 277 277 277 279 281 281 282 283 284 284 285 286 286 287 288 289 290 290 290
260 260 261 263 263 264 266 266 266 268 268 270 271 273 274 275 275 276 276 277 278 279 280 281 282 282 282 283 284 285 285 286 287 288 289 289 290 290
261 262 263 264 264 265 266 266 268 269 269 270 272 274 275 275 276 277 277 278 279 280 280 281 281 282 283 283 284 285 286 287 287 288 288 289 289 289
262 263 263 264 265 266 267 268 269 270 271 271 272 273 274 275 277 277 278 279 279 280 281 281 282 283 283 284 285 285 286 287 287 288 288 288 289 289
263 264 264 265 266 267 268 269 269 270 271 271 272 273 274 276 277 279 279 280 280 281 282 283 284 284 285 286 287 287 287 288 288 288 289 289 289 289
262 264 266 267 268 269 269 269 269 270 272 272 272 273 274 276 277 279 279 280 281 282 283 284 285 286 286 287 288 288 288 289 289 289 289 289 289 289
264 265 266 268 269 269 270 271 271 272 272 272 272 273 274 276 277 278 279 280 281 282 283 284 285 286 287 288 288 288 288 289 289 289 289 290 290 291
264 266 267 268 270 271 272 272 272 272 273 273 272 273 274 275 277 277 278 279 281 282 284 285 286 287 287 288 289 288 288 288 289 289 289 290 291 292
264 266 268 270 271 272 273 274 273 273 273 273 273 273 275 276 276 277 278 279 281 282 284 285 286 287 287 287 288 288 288 288 288 288 289 290 291 290
265 267 270 271 273 274 275 275 274 274 274 274 274 275 275 275 275 276 278 279 281 282 283 285 287 288 288 288 288 288 288 288 288 288 289 290 290 290
266 269 271 273 274 275 275 275 275 275 275 275 275 275 275 274 275 277 278 280 281 282 283 284 285 286 287 288 288 288 288 288 288 289 289 290 289 290
267 269 271 273 274 274 275 275 275 275 276 277 276 275 275 275 276 277 278 280 281 282 282 282 283 284 285 286 287 287 288 288 288 289 290 290 291 291
267 269 271 272 273 274 275 275 275 276 276 276 275 275 275 275 276 277 278 280 281 282 282 281 281 282 283 284 286 287 287 287 288 289 289 290 292 293
Height
5748 5750 5752 5755 5757 5759 5761 5762 5763 5764 5765 5766 5767 5767 5767 5767 5767 5767 5767 5767 5768 5768 5767 5767 5766 5766 5765 5765 5764 5763 5761 5760 5758 5757 5755 5753 5751 5749
5738 5740 5742 5744 5746 5749 5750 5751 5753 5754 5755 5756 5757 5757 5757 5758 5758 5757 5757 5757 5757 5757 5757 5756 5756 5756 5755 5754 5753 5752 5751 5749 5748 5746 5744 5742 5740 5737
5727 5729 5731 5734 5736 5738 5740 5741 5742 5743 5744 5745 5746 5747 5747 5747 5747 5747 5747 5747 5747 5746 5746 5746 5745 5745 5744 5743 5742 5741 5740 5738 5737 5735 5732 5730 5727 5725
5716 5718 5720 5723 5725 5727 5729 5731 5731 5732 5733 5734 5735 5736 5737 5737 5736 5736 5736 5736 5736 5735 5735 5735 5734 5734 5733 5732 5730 5729 5728 5726 5724 5722 5720 5718 5715 5712
5705 5707 5709 5712 5714 5716 5718 5719 5720 5721 5722 5723 5724 5725 5726 5725 5726 5726 5725 5725 5725 5724 5724 5723 5723 5722 5721 5719 5718 5717 5715 5714 5712 5709 5707 5704 5701 5698
5694 5696 5698 5700 5702 5704 5706 5707 5708 5709 5711 5712 5713 5714 5714 5714 5714 5715 5714 5714 5713 5713 5713 5712 5711 5710 5709 5707 5705 5704 5702 5700 5698 5695 5693 5690 5687 5683
5683 5685 5687 5689 5690 5692 5694 5696 5697 5698 5699 5700 5701 5702 5702 5702 5703 5703 5703 5702 5702 5701 5701 5700 5699 5698 5696 5694 5692 5690 5688 5686 5683 5681 5678 5675 5671 5668
5671 5673 5675 5677 5679 5680 5682 5683 5684 5685 5686 5687 5688 5689 5690 5690 5690 5690 5690 5690 5690 5690 5689 5688 5687 5685 5683 5681 5678 5676 5673 5671 5668 5665 5662 5659 5655 5652
5659 5661 5663 5665 5666 5667 5669 5670 5671 5672 5673 5674 5675 5676 5677 5677 5677 5677 5677 5677 5678 5677 5676 5676 5674 5672 5669 5667 5664 5661 5659 5656 5653 5650 5647 5643 5639 5635
5647 5649 5651 5652 5654 5655 5656 5657 5658 5659 5660 5661 5662 5663 5663 5663 5664 5664 5664 5664 5664 5663 5662 5662 5660 5658 5656 5652 5649 5647 5644 5641 5638 5634 5631 5627 5624 5620
5634 5636 5638 5639 5641 5642 5643 5645 5646 5647 5647 5647 5648 5649 5649 5650 5650 5650 5650 5649 5650 5649 5647 5647 5646 5644 5643 5639 5635 5632 5629 5625 5622 5618 5615 5611 5608 5604
5621 5623 5625 5627 5628 5629 5630 5632 5633 5634 5634 5634 5635 5636 5636 5636 5636 5635 5635 5635 5635 5635 5633 5632 5630 5628 5629 5626 5622 5618 5614 5610 5606 5603 5599 5595 5591 5588
5608 5610 5612 5613 5615 5616 5617 5619 5620 5620 5621 5621 5622 5622 5623 5622 5622 5621 5621 5620 5620 5619 5618 5616 5615 5612 5610 5610 5608 5603 5599 5595 5591 5588 5584 5580 5575 5571
5595 5597 5598 5600 5601 5602 5604 5605 5606 5607 5608 5608 5609 5609 5609 5609 5608 5607 5607 5605 5604 5604 5602 5600 5599 5597 5595 5593 5592 5589 5584 5580 5576 5572 5569 5565 5560 5556
5583 5584 5585 5587 5588 5589 5590 5591 5592 5593 5594 5594 5595 5595 5595 5595 5594 5593 5592 5591 5590 5588 5586 5584 5583 5581 5578 5576 5575 5572 5569 5566 5560 5557 5554 5550 5546 5542
5570 5572 5573 5574 5575 5576 5577 5577 5578 5579 5579 5580 5581 5581 5580 5580 5579 5579 5578 5577 5576 5574 5571 5569 5567 5565 5563 5560 5558 5556 5552 5549 5546 5542 5538 5535 5532 5528
5558 5559 5560 5561 5562 5563 5563 5563 5564 5564 5564 5565 5565 5566 5566 5565 5565 5564 5563 5562 5561 5560 5558 5555 5552 5549 5547 5545 5543 5540 5537 5534 5530 5527 5524 5522 5519 5514
5546 5547 5548 5549 5549 5549 5549 5549 5549 5549 5550 5550 5550 5551 5551 5550 5550 5549 5548 5547 5546 5545 5543 5540 5538 5536 5534 5531 5528 5525 5522 5519 5516 5513 5510 5507 5505 5501
5534 5535 5536 5536 5536 5536 5536 5536 5535 5535 5535 5535 5536 5536 5536 5535 5535 5534 5533 5533 5531 5530 5528 5526 5523 5521 5520 5518 5515 5510 5508 5505 5502 5500 5497 5493 5491 5487
5522 5523 5523 5524 5523 5523 5523 5522 5522 5521 5521 5521 5521 5521 5521 5520 5520 5520 5519 5519 5518 5516 5514 5512 5509 5507 5505 5504 5502 5498 5494 5491 5489 5486 5484 5480 5477 5474
5510 5510 5511 5511 5511 5510 5510 5509 5508 5508 5507 5507 5507 5506 5506 5506 5506 5506 5505 5504 5503 5502 5500 5498 5496 5493 5491 5489 5488 5486 5482 5478 5475 5473 5470 5468 5465 5462
5498 5498 5498 5498 5498 5497 5496 5496 5495 5494 5494 5493 5493 5492 5492 5492 5492 5492 5491 5490 5489 5488 5487 5485 5482 5480 5478 5477 5475 5473 5471 5467 5464 5460 5457 5455 5452 5450
5485 5486 5485 5485 5485 5484 5483 5483 5482 5481 5480 5480 5479 5479 5478 5478 5478 5478 5477 5476 5475 5474 5473 5472 5470 5468 5466 5464 5462 5460 5458 5456 5453 5451 5448 5444 5441 5438